Tracking 19226 objects as of 23-Jul-2018
HD Live streaming from Space Station
objects crossing your sky now

FENGYUN 1C DEB

Track FENGYUN 1C DEB now!
10-day predictions


NORAD ID: 29978
Int'l Code: 1999-025LC
Perigee: 862.3 km
Apogee: 973.7 km
Inclination: 99.4 °
Period: 103.2 minutes
Semi major axis: 7288 km
RCS: 0.081 m2 (small)
Launch date: May 10, 1999
Source: People's Republic of China (PRC)
Launch site: Taiyaun Space Center, China (TSC)

Note: This is SATELLITE DEBRIS
aabbcc
Your satellite tracking list
Your tracking list is empty




NASA's NSSDC Master Catalog

Two Line Element Set (TLE):
1 29978U 99025LC  18203.71173292 -.00000209 +00000-0 -11814-3 0  9997
2 29978 099.3689 210.5667 0076457 198.0868 222.0390 13.95086367586620
Source of the keplerian elements: AFSPC